Location: Cartersville (historical)
(42.9944°N, 93.0869°W)
Time: 20:55:13
(UTC+00:00)

BlueWalker 3 - Visible Passes

Search period start: 06 October 2024 00:00
Search period end: 16 October 2024 00:00
Orbit: 473 x 485 km, 53.2° (Epoch: 05 October)

Date Brightness Start Highest point End Pass type
(mag) Time Alt. Az. Time Alt. Az. Time Alt. Az.
06 Oct 5.1 09:16:40 10° E 09:16:40 10° E 09:16:48 10° E visible
06 Oct 1.7 10:50:54 35° WSW 10:52:19 80° NW 10:56:01 10° NE visible
07 Oct 1.7 10:24:09 88° NNE 10:24:09 88° NNE 10:27:49 10° NE visible
08 Oct 3.3 09:57:17 36° ENE 09:57:17 36° ENE 09:59:34 10° NE visible
08 Oct 3.3 11:31:29 12° WNW 11:34:12 24° NNW 11:37:17 10° NE visible
09 Oct 4.6 09:30:18 17° ENE 09:30:18 17° ENE 09:31:17 10° ENE visible
09 Oct 3.2 11:04:30 20° NW 11:05:52 25° NNW 11:09:01 10° NE visible
10 Oct 3.1 10:37:25 27° NNW 10:37:30 27° NNW 10:40:42 10° NE visible
11 Oct 3.7 10:10:16 24° N 10:10:16 24° N 10:12:22 10° NE visible
11 Oct 4.0 11:45:30 10° NW 11:47:58 17° N 11:50:26 10° NE visible
12 Oct 4.6 09:43:02 16° NNE 09:43:02 16° NNE 09:43:58 10° NE visible
12 Oct 4.0 11:17:13 11° NW 11:19:29 17° N 11:21:57 10° NE visible
13 Oct 3.9 10:49:56 15° NNW 10:50:57 17° N 10:53:27 10° NE visible
14 Oct 4.0 10:22:36 17° N 10:22:36 17° N 10:24:56 10° NE visible
15 Oct 4.5 09:55:14 15° NNE 09:55:14 15° NNE 09:56:22 10° NE visible
15 Oct 3.9 11:29:57 10° NW 11:32:48 20° NNE 11:35:37 10° ENE visible
